Regional Weather Roundup
Issued by NWS

Home | Current Version | Previous Version | Text Only | Print | Product List | Glossary Off
Versions: 1 2 3 4 5 6 7 8 9 10 11 12 13 14 15 16 17 18 19 20 21 22 23 24 25 26 27 28 29 30 31 32 33 34 35 36 37 38 39 40 41 42 43 44 45 46 47 48 49 50

000
ASUS45 KTFX 191110
RWRMT
MONTANA REGIONAL WEATHER ROUNDUP
NATIONAL WEATHER SERVICE GREAT FALLS MT
400 AM MST THU JAN 19 2017

NOTE: "FAIR" INDICATES FEW OR NO CLOUDS BELOW 12000 FEET WITH NO
SIGNIFICANT WEATHER AND/OR OBSTRUCTIONS TO VISIBILITY.

MTZ001>007-043-191200-
WEST OF THE DIVIDE

CITY           SKY/WX    TMP DP  RH WIND       PRES   REMARKS
KALISPELL      CLOUDY    29  27  92 CALM      29.51R FOG
MISSOULA       CLOUDY    28  27  96 W6        29.56R FOG     WCI  22
BUTTE          CLOUDY    19  14  81 S5        29.56F
MULLAN PASS    SNOW      31  28  89 VRB5      29.49R VSB 1/2
ANACONDA         N/A     37  25  60 SE15      29.52F WCI  28
DEER LODGE       N/A     36  27  69 S8        29.54F WCI  29
EUREKA           N/A     34  34 100 SE3       29.48R
HAMILTON         N/A     39  27  60 S13       29.54S WCI  32
PLAINS           N/A     30  25  82 CALM      29.57R
RONAN            N/A     29  27  92 CALM      29.58S
THOMPSON FALLS   N/A     33  32  96 CALM      29.61R
$$

MTZ008-052>055-191200-
SOUTHWEST MONTANA

CITY           SKY/WX    TMP DP  RH WIND       PRES   REMARKS
BOZEMAN        CLOUDY    24  19  81 S6        29.59S WCI  17
DILLON         CLOUDY    34  20  56 W8        29.59F WCI  27
W YELLOWSTONE  FLURRIES  16  14  93 SE3       29.74F
ENNIS          MOCLDY    32  21  64 S30G38    29.64F WCI  18
TWIN BRIDGES     N/A     30  18  61 SE10      29.65F WCI  21
$$

MTZ009-010-012-014-046-048-049-054-191200-
EAST SLOPES AND CENTRAL MONTANA

CITY           SKY/WX    TMP DP  RH WIND       PRES   REMARKS
CUT BANK       MOCLDY    38  32  79 SW10      29.39F WCI  31
GREAT FALLS    CLOUDY    41  25  53 S17       29.46S
MALMSTROM AFB  CLOUDY    43  28  55 S22       29.45F
HELENA         CLOUDY    27  19  72 W5        29.52F
AUGUSTA          N/A     35  27  73 E6        29.42F WCI  29
BOWMANS CRNR     N/A     35  24  65 S22       29.42S WCI  23
CHOTEAU          N/A     36  28  75 SE9       29.42F WCI  29
CONRAD           N/A     37  30  76 S18       29.48F WCI  27
POWER          MOCLDY    35  26  70 S10       29.43F WCI  27
RAYNESFORD     MOCLDY    44  25  47 S8        29.49S
ULM              N/A     40  28  62 MISG      29.46S
$$

MTZ011-013-016-021-045-047-050-051-191200-
NORTH CENTRAL MONTANA

CITY           SKY/WX    TMP DP  RH WIND       PRES   REMARKS
HAVRE          CLOUDY    39  30  70 SW5       29.43R
LEWISTOWN      CLOUDY    32  27  81 SE6       29.48F WCI  26
CHINOOK          N/A     30  28  93 E5        29.44S
DENTON         MOCLDY    41  29  64 S16       29.43S
FORT BENTON      N/A     46  27  46 MISG      29.45S
GEYSER         MOCLDY    43  28  54 SW18G25   29.44R
GRASS RANGE    MOCLDY    40  28  63 W14       29.43F
JUDITH GAP     CLOUDY    45  25  44 S8G24     29.50S
ROY            MOCLDY    46  28  47 MISG      29.44F
STANFORD       MOCLDY    44  28  53 SW24G31   29.45F
WINIFRED       MOCLDY    48  27  43 S10       29.45F
$$

MTZ017>020-022>027-061-062-191200-
NORTHEAST MONTANA

CITY           SKY/WX    TMP DP  RH WIND       PRES   REMARKS
GLASGOW        CLOUDY    24  20  84 E10       29.46F WCI  14
JORDAN           N/A     20  15  81 CALM      29.46F
SIDNEY         CLOUDY    18  15  88 S6        29.52S WCI  10
WOLF POINT     CLOUDY    15  11  83 CALM      29.49F
PLENTYWOOD       N/A     28  25  86 E3        29.48F
POPLAR           N/A     19  18  93 CALM      29.50F
SCOBEY           N/A     25  17  71 CALM      29.48F
$$

MTZ028>42-056>058-191200-
SOUTHCENTRAL AND SOUTHEAST MONTANA

CITY           SKY/WX    TMP DP  RH WIND       PRES   REMARKS
BAKER          CLOUDY    18  13  80 CALM      29.52F
BILLINGS       CLOUDY    33  20  58 SW21      29.51F WCI  21
LIVINGSTON     CLOUDY    42  13  30 SW30G44   29.55S
MILES CITY     CLOUDY    23  16  74 S9        29.52S WCI  13
BIG TIMBER     PTCLDY    43  12  28 W25       29.55
EKALAKA          N/A     35  17  48 SE5       29.54F
FORSYTH          N/A     25  19  80 NW5       29.51F
HARLOWTON      MOCLDY    36  23  59 W10       29.51R WCI  28
LAUREL           N/A     33  18  54 S13       29.54F WCI  24
$$

REGIONAL REPORTS...DAKOTAS

CITY           SKY/WX    TMP DP  RH WIND       PRES   REMARKS
WILLISTON      CLOUDY    16  16 100 SW6       29.51F WCI   7
MINOT          CLOUDY    28  23  81 SW6       29.48F WCI  22
DICKINSON      CLOUDY    24  17  74 SW6       29.48F WCI  17
BEACH            N/A     19  16  86 SE3       29.53F
CROSBY           N/A     27  23  86 S14       29.48F WCI  15
TIOGA            N/A     25  25 100 CALM      29.51S
WATFORD CITY     N/A     18  16  93 CALM      29.51F
BISMARCK       CLOUDY    11   6  81 CALM      29.56S
GRAND FORKS    CLOUDY    26  20  77 S12       29.59F WCI  16
FARGO          FOG       26  25  96 S8        29.65R VSB 1/2 WCI  18
BUFFALO SD       N/A     30  19  63 W8        29.45F WCI  22
RAPID CITY     CLOUDY    25  18  74 CALM      29.53F
$$

REGIONAL REPORTS...WYOMING/IDAHO/WASHINGTON

CITY           SKY/WX    TMP DP  RH WIND       PRES   REMARKS
GILLETTE       CLOUDY    33  19  56 SW21      29.53F WCI  21
SHERIDAN       CLOUDY    13  11  92 S3        29.52F
BUFFALO WY     CLOUDY    39  15  37 SW8       29.54F
CODY           CLOUDY    36  19  50 S14       29.58F WCI  27
YELLOWSTONE LA   N/A     15  13  91 CALM      29.73F
IDAHO FALLS    LGT SNOW  22  21  96 N8        29.76F VSB 3/4 WCI  12
SALMON         CLOUDY    19  16  86 S5        29.65F
BOISE          LGT RAIN  37  34  89 SE12      29.63F WCI  29
SPOKANE        CLOUDY    36  34  92 S8        29.49S WCI  30
$$

REGIONAL REPORTS...ALBERTA

CITY           SKY/WX    TMP DP  RH WIND       PRES   REMARKS
EDMONTON       CLEAR     34  21  60 SW8       29.24R WCI  27
CALGARY        MOCLDY    32  27  80 N6        29.26F WCI  26
LETHBRIDGE     PTCLDY    36  32  87 SW10      29.33F WCI  28
MEDICINE HAT   CLOUDY    36  32  87 VRB2      29.33F
WATERTON GATE    N/A     39  32  75 SW14G20     N/A  WCI  31
CARDSTON         N/A     39  32  75 SW6         N/A
MILK RIVER       N/A     39  32  75 SW7         N/A
$$

REGIONAL REPORTS...SASKATCHEWAN

CITY           SKY/WX    TMP DP  RH WIND       PRES   REMARKS
SWIFT CURRENT  PTCLDY    36  32  87 SW8       29.36F WCI  29
REGINA         PTCLDY    28  27  93 S8        29.40F WCI  20
SASKATOON      MOCLDY    34  30  86 S9        29.32S WCI  26
CYPRESS HILLS    N/A     39  27  60 SW8         N/A
VAL MARIE        N/A     16  14  93 E1          N/A
ROCKGLEN         N/A     34  28  80 SW13        N/A  WCI  25
ASSINIBOIA       N/A     32  25  74 SW10        N/A  WCI  24
$$



USA.gov is the U.S. government's official web portal to all federal, state and local government web resources and services.